Savannah, GA

9:59 AM EST on December 07, 2016 (GMT -0500)
Hunter Army Air Field

Weather History for KSVN - August, 2013

Change the Weather History Date:

Sunday, August 4, 2013

  Actual Average Record
Temperature  
Mean Temperature 84 °F -  
Max Temperature 93 °F 88 °F 101 °F (2011)
Min Temperature 75 °F 71 °F 69 °F (2001)
Cooling Degree Days 19    
Growing Degree Days 34 (Base 50)    
Moisture  
Dew Point 75 °F    
Average Humidity 78    
Maximum Humidity 95    
Minimum Humidity 52    
Precipitation  
Precipitation 0.00 in - - ()
Sea Level Pressure  
Sea Level Pressure 29.96 in    
Wind  
Wind Speed 7 mph (West)    
Max Wind Speed 14 mph    
Max Gust Speed -    
Visibility 10 miles    
Events Rain    
Averages and records for this station are not official NWS values.
T = Trace of Precipitation, MM = Missing Value Source: NWS Daily Summary

Daily Weather History Graph

Daily Weather History Graph

Search for Another Location

Airport or City:

Trip Planner

Search our weather history database for the weather conditions in past years. The results will help you decide how hot, cold, wet, or windy it might be!

Date:

Astronomy

Aug. 04, 2013 Rise Set
Actual Time 6:42 AM EDT 8:18 PM EDT
Civil Twilight 6:15 AM EDT 8:45 PM EDT
Nautical Twilight 5:43 AM EDT 9:16 PM EDT
Astronomical Twilight 5:10 AM EDT 9:50 PM EDT
Moon 4:43 AM EDT (8/4) 6:40 PM EDT (8/4)
Length of Visible Light 14h 29m
Length of Day
13h 36m
Waning Crescent, 5% of the Moon is Illuminated
Aug 4
Waning Crescent
Aug 6
New
Aug 14
First Quarter
Aug 20
Full
Aug 28
Last Quarter

Hourly Weather History & Observations

Time (EDT) Temp. Heat Index Dew Point Humidity Pressure Visibility Wind Dir Wind Speed Gust Speed Precip Events Conditions
12:58 AM 78.8 °F - 75.4 °F 89% 29.99 in 10.0 mi WSW 4.6 mph - N/A   Clear
1:58 AM 77.7 °F - 74.7 °F 90% 29.98 in 10.0 mi WSW 6.9 mph - N/A   Clear
2:58 AM 76.8 °F - 73.9 °F 91% 29.97 in 10.0 mi WSW 8.1 mph - N/A   Clear
3:58 AM 76.1 °F - 73.6 °F 92% 29.96 in 10.0 mi WSW 4.6 mph - N/A   Clear
4:58 AM 75.7 °F - 73.6 °F 93% 29.96 in 10.0 mi WSW 5.8 mph - N/A   Clear
5:58 AM 75.4 °F - 73.9 °F 95% 29.98 in 10.0 mi West 5.8 mph - N/A   Scattered Clouds
6:58 AM 75.6 °F - 74.1 °F 95% 29.98 in 10.0 mi West 5.8 mph - N/A   Overcast
7:58 AM 76.6 °F - 74.5 °F 93% 29.99 in 10.0 mi West 6.9 mph - N/A   Scattered Clouds
8:08 AM 77.0 °F - 75.2 °F 94% 29.98 in 10.0 mi WSW 6.9 mph - N/A Rain Light Rain
8:17 AM 77.0 °F - 75.2 °F 94% 29.98 in 10.0 mi West 4.6 mph - N/A   Partly Cloudy
8:58 AM 79.5 °F - 74.7 °F 85% 29.99 in 10.0 mi West 8.1 mph - 0.00 in   Partly Cloudy
9:58 AM 82.6 °F 88.8 °F 74.1 °F 75% 30.00 in 10.0 mi West 8.1 mph - N/A   Partly Cloudy
10:58 AM 88.0 °F 98.5 °F 75.9 °F 67% 29.99 in 10.0 mi West 11.5 mph - N/A   Partly Cloudy
11:58 AM 88.9 °F 98.1 °F 74.3 °F 62% 29.99 in 10.0 mi West 12.7 mph - N/A   Scattered Clouds
12:58 PM 89.2 °F 97.4 °F 73.2 °F 59% 29.97 in 10.0 mi WSW 10.4 mph - N/A   Mostly Cloudy
1:58 PM 92.8 °F 101.5 °F 72.7 °F 52% 29.95 in 10.0 mi West 13.8 mph - N/A   Partly Cloudy
2:58 PM 92.5 °F 101.3 °F 73.0 °F 53% 29.93 in 10.0 mi WNW 13.8 mph - N/A   Partly Cloudy
3:58 PM 93.6 °F 104.5 °F 74.5 °F 54% 29.91 in 10.0 mi West 12.7 mph - N/A   Partly Cloudy
4:58 PM 91.9 °F 101.9 °F 74.3 °F 56% 29.91 in 10.0 mi West 11.5 mph - N/A   Scattered Clouds
5:58 PM 90.1 °F 100.0 °F 74.7 °F 60% 29.91 in 10.0 mi WNW 6.9 mph - N/A   Partly Cloudy
6:58 PM 89.2 °F 99.5 °F 75.0 °F 63% 29.92 in 10.0 mi NW 5.8 mph - N/A   Scattered Clouds
7:58 PM 87.4 °F 98.7 °F 76.5 °F 70% 29.94 in 10.0 mi West 3.5 mph - N/A   Partly Cloudy
8:58 PM 83.1 °F 92.3 °F 77.2 °F 82% 29.94 in 10.0 mi West 2.3 mph - N/A   Clear
9:58 PM 81.7 °F 89.0 °F 76.3 °F 84% 29.96 in 10.0 mi SSW 4.6 mph - N/A   Clear
10:58 PM 82.2 °F 89.9 °F 76.1 °F 82% 29.97 in 10.0 mi WNW 2.3 mph - N/A   Clear
11:58 PM 80.1 °F 85.7 °F 76.6 °F 89% 29.99 in 10.0 mi North 1.2 mph - N/A   Scattered Clouds